Time,TemperatureF,DewpointF,PressureIn,WindDirection,WindDirectionDegrees,WindSpeedMPH,WindSpeedGustMPH,Humidity,HourlyPrecipIn,Conditions,Clouds,dailyrainin,SoftwareType,DateUTC
2013-06-06 00:01:00,56.9,45.7,30.09,East,81,0.9,3.5,66,0.00,,,0.00,WeatherDisplay:10.37,2013-06-06 04:01:00,
2013-06-06 00:06:00,56.8,45.6,30.09,ESE,103,0.7,3.5,66,0.00,,,0.00,WeatherDisplay:10.37,2013-06-06 04:06:00,
2013-06-06 00:11:00,56.8,46.0,30.08,ENE,68,0.9,3.5,67,0.00,,,0.00,WeatherDisplay:10.37,2013-06-06 04:11:00,
2013-06-06 00:16:00,56.8,46.0,30.09,East,98,0.1,4.0,67,0.00,,,0.00,WeatherDisplay:10.37,2013-06-06 04:16:00,
2013-06-06 00:21:00,56.7,46.3,30.09,East,89,0.0,4.0,68,0.00,,,0.00,WeatherDisplay:10.37,2013-06-06 04:21:00,
2013-06-06 00:26:00,56.6,46.2,30.09,ENE,65,1.3,4.0,68,0.00,,,0.00,WeatherDisplay:10.37,2013-06-06 04:26:00,
2013-06-06 00:31:00,56.6,46.2,30.08,ESE,113,0.4,4.0,68,0.00,,,0.00,WeatherDisplay:10.37,2013-06-06 04:31:00,
2013-06-06 00:36:00,56.7,46.6,30.08,ESE,122,0.7,4.0,69,0.00,,,0.00,WeatherDisplay:10.37,2013-06-06 04:36:00,
2013-06-06 00:41:00,56.7,46.6,30.08,East,81,0.0,4.0,69,0.00,,,0.00,WeatherDisplay:10.37,2013-06-06 04:41:00,
2013-06-06 00:46:00,56.6,46.9,30.08,ENE,78,1.0,4.0,70,0.00,,,0.00,WeatherDisplay:10.37,2013-06-06 04:46:00,
2013-06-06 00:51:00,56.6,46.9,30.08,East,89,1.2,4.0,70,0.00,,,0.00,WeatherDisplay:10.37,2013-06-06 04:51:00,
2013-06-06 00:56:00,56.5,47.2,30.08,East,90,0.1,4.0,71,0.00,,,0.00,WeatherDisplay:10.37,2013-06-06 04:56:00,
2013-06-06 01:01:00,56.5,47.2,30.08,East,96,2.2,4.0,71,0.00,,,0.00,WeatherDisplay:10.37,2013-06-06 05:01:00,
2013-06-06 01:06:00,56.5,47.6,30.07,ENE,68,0.6,4.0,72,0.00,,,0.00,WeatherDisplay:10.37,2013-06-06 05:06:00,
2013-06-06 01:11:00,56.4,47.5,30.07,East,99,2.6,4.0,72,0.00,,,0.00,WeatherDisplay:10.37,2013-06-06 05:11:00,
2013-06-06 01:16:00,56.4,47.9,30.07,East,100,1.8,5.0,73,0.00,,,0.00,WeatherDisplay:10.37,2013-06-06 05:16:00,
2013-06-06 01:21:00,56.3,47.8,30.07,East,94,1.4,5.0,73,0.00,,,0.00,WeatherDisplay:10.37,2013-06-06 05:21:00,
2013-06-06 01:26:00,56.1,47.9,30.07,SE,137,0.6,5.0,74,0.00,,,0.00,WeatherDisplay:10.37,2013-06-06 05:26:00,
2013-06-06 01:31:00,56.0,47.8,30.07,East,81,0.0,5.0,74,0.00,,,0.00,WeatherDisplay:10.37,2013-06-06 05:31:00,
2013-06-06 01:36:00,55.8,48.0,30.07,East,91,0.1,5.0,75,0.00,,,0.00,WeatherDisplay:10.37,2013-06-06 05:36:00,
2013-06-06 01:41:00,55.8,48.0,30.07,East,99,0.1,5.0,75,0.00,,,0.00,WeatherDisplay:10.37,2013-06-06 05:41:00,
2013-06-06 01:46:00,55.7,48.2,30.07,ENE,75,0.0,5.0,76,0.00,,,0.00,WeatherDisplay:10.37,2013-06-06 05:46:00,
2013-06-06 01:51:00,55.5,48.1,30.07,SE,131,0.0,5.0,76,0.00,,,0.00,WeatherDisplay:10.37,2013-06-06 05:51:00,
2013-06-06 01:56:00,55.4,48.3,30.07,SE,131,0.0,5.0,77,0.00,,,0.00,WeatherDisplay:10.37,2013-06-06 05:56:00,
2013-06-06 02:01:00,55.2,48.5,30.07,East,85,0.3,5.0,78,0.00,,,0.00,WeatherDisplay:10.37,2013-06-06 06:01:00,
2013-06-06 02:06:00,55.0,48.3,30.07,East,94,0.2,5.0,78,0.00,,,0.00,WeatherDisplay:10.37,2013-06-06 06:06:00,
2013-06-06 02:11:00,54.9,48.2,30.06,East,98,0.0,5.0,78,0.00,,,0.00,WeatherDisplay:10.37,2013-06-06 06:11:00,
2013-06-06 02:16:00,54.9,48.5,30.06,East,88,0.0,5.0,79,0.00,,,0.00,WeatherDisplay:10.37,2013-06-06 06:16:00,
2013-06-06 02:21:00,54.8,48.4,30.06,East,92,0.6,5.0,79,0.00,,,0.00,WeatherDisplay:10.37,2013-06-06 06:21:00,
2013-06-06 02:26:00,54.8,48.4,30.06,East,92,0.0,5.0,79,0.00,,,0.00,WeatherDisplay:10.37,2013-06-06 06:26:00,
2013-06-06 02:31:00,54.9,48.8,30.06,East,79,0.7,5.0,80,0.00,,,0.00,WeatherDisplay:10.37,2013-06-06 06:31:00,
2013-06-06 02:36:00,55.1,48.7,30.06,East,90,0.4,5.0,79,0.00,,,0.00,WeatherDisplay:10.37,2013-06-06 06:36:00,
2013-06-06 02:41:00,55.2,49.1,30.06,ESE,115,0.1,5.0,80,0.00,,,0.00,WeatherDisplay:10.37,2013-06-06 06:41:00,
2013-06-06 02:46:00,55.3,48.9,30.05,East,88,0.1,5.0,79,0.00,,,0.00,WeatherDisplay:10.37,2013-06-06 06:46:00,
2013-06-06 02:51:00,55.4,49.0,30.05,ENE,68,0.4,5.0,79,0.00,,,0.00,WeatherDisplay:10.37,2013-06-06 06:51:00,
2013-06-06 02:56:00,55.5,49.1,30.05,East,79,0.2,5.0,79,0.00,,,0.00,WeatherDisplay:10.37,2013-06-06 06:56:00,
2013-06-06 03:01:00,55.5,49.1,30.05,ESE,120,0.8,5.0,79,0.00,,,0.00,WeatherDisplay:10.37,2013-06-06 07:01:00,
2013-06-06 03:06:00,55.5,49.1,30.05,East,82,1.5,5.0,79,0.00,,,0.00,WeatherDisplay:10.37,2013-06-06 07:06:00,
2013-06-06 03:11:00,55.5,49.1,30.04,East,91,0.4,6.0,79,0.00,,,0.00,WeatherDisplay:10.37,2013-06-06 07:11:00,
2013-06-06 03:16:00,55.6,48.8,30.04,ENE,60,2.1,6.0,78,0.00,,,0.00,WeatherDisplay:10.37,2013-06-06 07:16:00,
2013-06-06 03:22:00,55.6,48.8,30.04,East,98,0.8,6.0,78,0.00,,,0.00,WeatherDisplay:10.37,2013-06-06 07:22:00,
2013-06-06 03:27:00,55.6,48.8,30.04,ESE,113,0.8,6.0,78,0.00,,,0.00,WeatherDisplay:10.37,2013-06-06 07:27:00,
2013-06-06 03:32:00,55.6,48.5,30.04,ENE,60,4.4,8.0,77,0.00,,,0.00,WeatherDisplay:10.37,2013-06-06 07:32:00,
2013-06-06 03:37:00,55.5,48.4,30.04,NE,36,1.5,8.1,77,0.00,,,0.00,WeatherDisplay:10.37,2013-06-06 07:37:00,
2013-06-06 03:42:00,55.5,48.4,30.03,ESE,107,0.4,8.1,77,0.00,,,0.00,WeatherDisplay:10.37,2013-06-06 07:42:00,
2013-06-06 03:47:00,55.4,48.3,30.03,SE,125,2.4,8.1,77,0.00,,,0.00,WeatherDisplay:10.37,2013-06-06 07:47:00,
2013-06-06 03:52:00,55.4,48.3,30.03,East,98,2.5,8.1,77,0.00,,,0.00,WeatherDisplay:10.37,2013-06-06 07:52:00,
2013-06-06 03:57:00,55.3,48.2,30.03,East,92,1.0,8.1,77,0.00,,,0.00,WeatherDisplay:10.37,2013-06-06 07:57:00,
2013-06-06 04:02:00,55.3,48.2,30.02,ENE,68,1.7,8.1,77,0.00,,,0.00,WeatherDisplay:10.37,2013-06-06 08:02:00,
2013-06-06 04:07:00,55.3,48.2,30.02,ESE,115,1.1,8.1,77,0.00,,,0.00,WeatherDisplay:10.37,2013-06-06 08:07:00,
2013-06-06 04:12:00,55.3,48.2,30.02,ESE,113,1.0,8.1,77,0.00,,,0.00,WeatherDisplay:10.37,2013-06-06 08:12:00,
2013-06-06 04:17:00,55.3,48.2,30.01,East,93,2.6,8.1,77,0.00,,,0.00,WeatherDisplay:10.37,2013-06-06 08:17:00,
2013-06-06 04:22:00,55.3,48.2,30.01,ESE,107,2.3,8.1,77,0.00,,,0.00,WeatherDisplay:10.37,2013-06-06 08:22:00,
2013-06-06 04:27:00,55.3,48.2,30.01,ENE,75,3.6,8.1,77,0.00,,,0.00,WeatherDisplay:10.37,2013-06-06 08:27:00,
2013-06-06 04:32:00,55.3,48.2,30.01,ESE,102,2.1,8.1,77,0.00,,,0.00,WeatherDisplay:10.37,2013-06-06 08:32:00,
2013-06-06 04:37:00,55.2,48.1,30.01,ENE,65,1.9,8.1,77,0.00,,,0.00,WeatherDisplay:10.37,2013-06-06 08:37:00,
2013-06-06 04:42:00,55.2,48.1,30.00,SE,142,2.3,8.1,77,0.00,,,0.00,WeatherDisplay:10.37,2013-06-06 08:42:00,
2013-06-06 04:47:00,55.2,48.1,30.00,East,93,0.9,8.1,77,0.00,,,0.00,WeatherDisplay:10.37,2013-06-06 08:47:00,
2013-06-06 04:52:00,55.3,48.2,30.00,ESE,115,1.3,8.1,77,0.00,,,0.00,WeatherDisplay:10.37,2013-06-06 08:52:00,
2013-06-06 04:57:00,55.3,48.2,29.99,ENE,68,1.9,8.1,77,0.00,,,0.00,WeatherDisplay:10.37,2013-06-06 08:57:00,
2013-06-06 05:02:00,55.4,48.3,29.99,East,82,1.3,8.1,77,0.00,,,0.00,WeatherDisplay:10.37,2013-06-06 09:02:00,
2013-06-06 05:07:00,55.5,48.4,29.99,East,89,1.8,8.1,77,0.00,,,0.00,WeatherDisplay:10.37,2013-06-06 09:07:00,
2013-06-06 05:12:00,55.5,48.8,29.98,ENE,57,0.7,8.1,78,0.00,,,0.00,WeatherDisplay:10.37,2013-06-06 09:12:00,
2013-06-06 05:17:00,55.5,48.8,29.98,East,99,0.9,8.1,78,0.00,,,0.00,WeatherDisplay:10.37,2013-06-06 09:17:00,
2013-06-06 05:22:00,55.5,49.1,29.98,ESE,107,2.3,8.1,79,0.00,,,0.00,WeatherDisplay:10.37,2013-06-06 09:22:00,
2013-06-06 05:27:00,55.5,49.1,29.98,East,82,0.4,8.1,79,0.00,,,0.00,WeatherDisplay:10.37,2013-06-06 09:27:00,
2013-06-06 05:32:00,55.5,49.1,29.98,SE,136,0.7,8.1,79,0.00,,,0.00,WeatherDisplay:10.37,2013-06-06 09:32:00,
2013-06-06 05:37:00,55.4,49.3,29.98,ENE,64,0.2,8.1,80,0.00,,,0.00,WeatherDisplay:10.37,2013-06-06 09:37:00,
2013-06-06 05:42:00,55.5,49.4,29.97,ESE,113,0.0,8.1,80,0.00,,,0.00,WeatherDisplay:10.37,2013-06-06 09:42:00,
2013-06-06 05:47:00,55.6,49.5,29.97,East,84,0.2,8.1,80,0.00,,,0.00,WeatherDisplay:10.37,2013-06-06 09:47:00,
2013-06-06 05:52:00,55.7,49.3,29.97,ENE,57,0.6,8.1,79,0.00,,,0.00,WeatherDisplay:10.37,2013-06-06 09:52:00,
2013-06-06 05:57:00,55.8,49.4,29.97,ESE,103,0.0,8.1,79,0.00,,,0.00,WeatherDisplay:10.37,2013-06-06 09:57:00,
2013-06-06 06:02:00,55.9,49.5,29.97,ESE,104,0.0,8.1,79,0.00,,,0.00,WeatherDisplay:10.37,2013-06-06 10:02:00,
2013-06-06 06:07:00,55.9,49.1,29.98,NE,44,0.0,8.1,78,0.00,,,0.00,WeatherDisplay:10.37,2013-06-06 10:07:00,
2013-06-06 06:12:00,56.1,49.3,29.98,NE,44,0.0,8.1,78,0.00,,,0.00,WeatherDisplay:10.37,2013-06-06 10:12:00,
2013-06-06 06:17:00,56.2,49.8,29.98,NE,44,0.0,8.1,79,0.00,,,0.00,WeatherDisplay:10.37,2013-06-06 10:17:00,
2013-06-06 06:22:00,56.3,49.5,29.98,East,83,0.0,8.1,78,0.00,,,0.00,WeatherDisplay:10.37,2013-06-06 10:22:00,
2013-06-06 06:27:00,56.4,49.3,29.98,East,84,0.4,8.1,77,0.00,,,0.00,WeatherDisplay:10.37,2013-06-06 10:27:00,
2013-06-06 06:32:00,56.5,49.4,29.99,NE,54,0.0,8.1,77,0.00,,,0.00,WeatherDisplay:10.37,2013-06-06 10:32:00,
2013-06-06 06:37:00,56.6,50.2,29.99,NNE,29,0.0,8.1,79,0.00,,,0.00,WeatherDisplay:10.37,2013-06-06 10:37:00,
2013-06-06 06:42:00,56.7,49.9,30.00,West,262,2.9,8.1,78,0.00,,,0.00,WeatherDisplay:10.37,2013-06-06 10:42:00,
2013-06-06 06:47:00,56.6,51.2,30.00,WNW,283,0.1,8.1,82,0.05,RA,,0.05,WeatherDisplay:10.37,2013-06-06 10:47:00,
2013-06-06 06:52:00,55.8,50.7,30.00,East,84,0.2,8.1,83,0.08,RA,,0.08,WeatherDisplay:10.37,2013-06-06 10:52:00,
2013-06-06 06:57:00,55.2,50.8,30.00,East,84,0.0,8.1,85,0.11,RA,,0.11,WeatherDisplay:10.37,2013-06-06 10:57:00,
2013-06-06 07:02:00,54.8,51.0,30.00,East,83,0.0,8.1,87,0.15,RA,,0.15,WeatherDisplay:10.37,2013-06-06 11:02:00,
2013-06-06 07:07:00,54.5,51.0,30.00,SE,134,0.1,8.1,88,0.17,RA,,0.17,WeatherDisplay:10.37,2013-06-06 11:07:00,
2013-06-06 07:12:00,54.2,51.0,29.99,ENE,78,0.7,8.1,89,0.18,RA,,0.18,WeatherDisplay:10.37,2013-06-06 11:12:00,
2013-06-06 07:17:00,53.9,51.0,30.00,ENE,63,2.7,8.1,90,0.21,RA,,0.21,WeatherDisplay:10.37,2013-06-06 11:17:00,
2013-06-06 07:22:00,53.8,50.9,30.00,ESE,121,0.0,8.1,90,0.22,RA,,0.22,WeatherDisplay:10.37,2013-06-06 11:22:00,
2013-06-06 07:27:00,53.7,51.1,30.00,WNW,295,0.0,8.1,91,0.22,RA,,0.22,WeatherDisplay:10.37,2013-06-06 11:27:00,
2013-06-06 07:32:00,53.8,51.2,30.00,WNW,287,0.0,8.1,91,0.23,RA,,0.23,WeatherDisplay:10.37,2013-06-06 11:32:00,
2013-06-06 07:37:00,53.8,51.5,30.00,ENE,78,0.7,8.1,92,0.23,RA,,0.23,WeatherDisplay:10.37,2013-06-06 11:37:00,
2013-06-06 07:42:00,53.9,51.6,30.00,ENE,71,0.0,8.1,92,0.23,,,0.23,WeatherDisplay:10.37,2013-06-06 11:42:00,
2013-06-06 07:47:00,54.0,51.7,30.00,ESE,119,0.3,8.1,92,0.18,,,0.23,WeatherDisplay:10.37,2013-06-06 11:47:00,
2013-06-06 07:52:00,54.1,51.8,30.00,ENE,73,0.1,8.1,92,0.16,RA,,0.24,WeatherDisplay:10.37,2013-06-06 11:52:00,
2013-06-06 07:57:00,54.0,51.7,30.00,ENE,63,1.3,8.1,92,0.14,RA,,0.25,WeatherDisplay:10.37,2013-06-06 11:57:00,
2013-06-06 08:02:00,54.0,52.0,30.00,East,81,0.4,8.1,93,0.11,RA,,0.26,WeatherDisplay:10.37,2013-06-06 12:02:00,
2013-06-06 08:07:00,53.9,51.9,30.00,ENE,71,0.5,8.1,93,0.11,RA,,0.28,WeatherDisplay:10.37,2013-06-06 12:07:00,
2013-06-06 08:12:00,53.8,51.8,30.00,ENE,78,0.0,8.1,93,0.11,RA,,0.29,WeatherDisplay:10.37,2013-06-06 12:12:00,
2013-06-06 08:17:00,53.7,51.7,30.00,East,82,0.0,8.1,93,0.09,RA,,0.30,WeatherDisplay:10.37,2013-06-06 12:17:00,
2013-06-06 08:22:00,53.7,51.7,30.00,East,99,0.1,8.1,93,0.09,RA,,0.31,WeatherDisplay:10.37,2013-06-06 12:22:00,
2013-06-06 08:27:00,53.7,51.7,30.00,ENE,65,2.0,8.1,93,0.11,RA,,0.33,WeatherDisplay:10.37,2013-06-06 12:27:00,
2013-06-06 08:32:00,53.6,51.6,30.00,East,96,0.1,8.1,93,0.11,RA,,0.34,WeatherDisplay:10.37,2013-06-06 12:32:00,
2013-06-06 08:37:00,53.6,51.6,30.00,NE,56,0.9,8.1,93,0.12,RA,,0.35,WeatherDisplay:10.37,2013-06-06 12:37:00,
2013-06-06 08:42:00,53.6,51.6,30.00,East,98,0.1,8.1,93,0.13,RA,,0.37,WeatherDisplay:10.37,2013-06-06 12:42:00,
2013-06-06 08:47:00,53.6,51.9,30.00,ENE,70,1.6,8.1,94,0.14,RA,,0.37,WeatherDisplay:10.37,2013-06-06 12:47:00,
2013-06-06 08:52:00,53.6,51.9,29.99,ENE,71,2.5,8.1,94,0.14,RA,,0.38,WeatherDisplay:10.37,2013-06-06 12:52:00,
2013-06-06 08:57:00,53.7,52.0,30.00,ESE,106,1.8,8.1,94,0.14,RA,,0.40,WeatherDisplay:10.37,2013-06-06 12:57:00,
2013-06-06 09:02:00,53.7,52.0,29.99,East,84,2.4,8.1,94,0.15,RA,,0.41,WeatherDisplay:10.37,2013-06-06 13:02:00,
2013-06-06 09:07:00,53.9,52.2,29.99,ENE,64,1.6,8.1,94,0.14,RA,,0.42,WeatherDisplay:10.37,2013-06-06 13:07:00,
2013-06-06 09:12:00,54.0,52.3,29.99,ENE,68,0.8,8.1,94,0.14,RA,,0.43,WeatherDisplay:10.37,2013-06-06 13:12:00,
2013-06-06 09:17:00,54.1,52.4,29.99,ENE,78,2.7,8.1,94,0.14,RA,,0.44,WeatherDisplay:10.37,2013-06-06 13:17:00,
2013-06-06 09:22:00,54.2,52.5,29.99,SE,125,1.3,8.1,94,0.14,RA,,0.45,WeatherDisplay:10.37,2013-06-06 13:22:00,
2013-06-06 09:27:00,54.5,52.8,29.99,ENE,78,0.8,8.1,94,0.12,RA,,0.45,WeatherDisplay:10.37,2013-06-06 13:27:00,
2013-06-06 09:32:00,54.6,52.9,29.99,East,85,2.2,8.1,94,0.11,,,0.45,WeatherDisplay:10.37,2013-06-06 13:32:00,
2013-06-06 09:37:00,54.7,53.0,29.99,ESE,120,0.5,8.1,94,0.11,RA,,0.46,WeatherDisplay:10.37,2013-06-06 13:37:00,
2013-06-06 09:42:00,54.9,53.2,29.98,East,96,2.1,8.1,94,0.11,RA,,0.47,WeatherDisplay:10.37,2013-06-06 13:42:00,
2013-06-06 09:47:00,55.0,53.3,29.98,ENE,78,3.4,8.1,94,0.10,RA,,0.47,WeatherDisplay:10.37,2013-06-06 13:47:00,
2013-06-06 09:52:00,55.0,53.3,29.98,South,173,2.2,8.1,94,0.09,,,0.47,WeatherDisplay:10.37,2013-06-06 13:52:00,
2013-06-06 09:57:00,55.1,53.4,29.98,ENE,60,2.1,8.1,94,0.09,RA,,0.48,WeatherDisplay:10.37,2013-06-06 13:57:00,
2013-06-06 10:02:00,55.2,53.5,29.98,ESE,113,1.7,8.1,94,0.08,RA,,0.49,WeatherDisplay:10.37,2013-06-06 14:02:00,
2013-06-06 10:07:00,55.3,53.6,29.98,East,81,2.8,8.1,94,0.08,RA,,0.50,WeatherDisplay:10.37,2013-06-06 14:07:00,
2013-06-06 10:12:00,55.4,53.7,29.98,SE,125,1.9,8.1,94,0.07,RA,,0.50,WeatherDisplay:10.37,2013-06-06 14:12:00,
2013-06-06 10:17:00,55.6,53.9,29.98,ENE,58,1.4,8.1,94,0.07,RA,,0.51,WeatherDisplay:10.37,2013-06-06 14:17:00,
2013-06-06 10:22:00,55.7,54.0,29.98,ENE,78,2.5,8.1,94,0.07,RA,,0.52,WeatherDisplay:10.37,2013-06-06 14:22:00,
2013-06-06 10:27:00,55.8,54.1,29.98,East,89,0.0,8.1,94,0.08,RA,,0.53,WeatherDisplay:10.37,2013-06-06 14:27:00,
2013-06-06 10:32:00,55.9,54.2,29.98,ENE,72,2.4,8.1,94,0.10,RA,,0.55,WeatherDisplay:10.37,2013-06-06 14:32:00,
2013-06-06 10:37:00,56.0,54.3,29.98,SE,134,1.9,8.1,94,0.10,RA,,0.56,WeatherDisplay:10.37,2013-06-06 14:37:00,
2013-06-06 10:42:00,56.1,54.4,29.98,East,94,1.5,8.1,94,0.10,RA,,0.57,WeatherDisplay:10.37,2013-06-06 14:42:00,
2013-06-06 10:47:00,56.1,54.4,29.98,SE,137,1.3,8.1,94,0.12,RA,,0.59,WeatherDisplay:10.37,2013-06-06 14:47:00,
2013-06-06 10:52:00,56.2,54.5,29.98,SE,132,1.0,8.1,94,0.13,RA,,0.60,WeatherDisplay:10.37,2013-06-06 14:52:00,
2013-06-06 10:57:00,56.3,54.6,29.97,South,176,1.4,8.1,94,0.13,RA,,0.61,WeatherDisplay:10.37,2013-06-06 14:57:00,
2013-06-06 11:02:00,56.4,54.7,29.97,South,181,0.8,8.1,94,0.13,RA,,0.62,WeatherDisplay:10.37,2013-06-06 15:02:00,
2013-06-06 11:07:00,56.5,54.8,29.97,ENE,68,1.3,8.1,94,0.14,RA,,0.64,WeatherDisplay:10.37,2013-06-06 15:07:00,
2013-06-06 11:12:00,56.6,54.9,29.97,NE,56,2.8,8.1,94,0.15,RA,,0.65,WeatherDisplay:10.37,2013-06-06 15:12:00,
2013-06-06 11:17:00,56.7,55.0,29.97,ENE,68,2.4,8.1,94,0.16,RA,,0.67,WeatherDisplay:10.37,2013-06-06 15:17:00,
2013-06-06 11:22:00,56.8,55.1,29.97,ESE,103,2.1,8.1,94,0.16,RA,,0.68,WeatherDisplay:10.37,2013-06-06 15:22:00,
2013-06-06 11:27:00,56.8,55.1,29.97,East,79,1.0,8.1,94,0.16,RA,,0.69,WeatherDisplay:10.37,2013-06-06 15:27:00,
2013-06-06 11:32:00,56.8,55.1,29.97,East,90,1.3,8.1,94,0.15,RA,,0.70,WeatherDisplay:10.37,2013-06-06 15:32:00,
2013-06-06 11:37:00,56.9,55.2,29.97,East,85,1.3,8.1,94,0.15,RA,,0.71,WeatherDisplay:10.37,2013-06-06 15:37:00,
2013-06-06 11:42:00,57.1,55.4,29.97,ENE,71,2.6,8.1,94,0.15,RA,,0.73,WeatherDisplay:10.37,2013-06-06 15:42:00,
2013-06-06 11:47:00,57.1,55.4,29.97,East,89,1.6,8.1,94,0.14,RA,,0.74,WeatherDisplay:10.37,2013-06-06 15:47:00,
2013-06-06 11:52:00,57.2,55.5,29.96,SE,132,2.1,8.1,94,0.14,RA,,0.75,WeatherDisplay:10.37,2013-06-06 15:52:00,
2013-06-06 11:57:00,57.3,55.6,29.96,East,81,1.4,8.1,94,0.14,RA,,0.75,WeatherDisplay:10.37,2013-06-06 15:57:00,
2013-06-06 12:02:00,57.3,55.6,29.96,ESE,108,1.3,8.1,94,0.14,RA,,0.76,WeatherDisplay:10.37,2013-06-06 16:02:00,
2013-06-06 12:07:00,57.4,55.7,29.96,East,89,2.0,8.1,94,0.13,RA,,0.77,WeatherDisplay:10.37,2013-06-06 16:07:00,
2013-06-06 12:12:00,57.3,55.6,29.96,East,89,2.0,8.1,94,0.13,RA,,0.78,WeatherDisplay:10.37,2013-06-06 16:12:00,
2013-06-06 12:17:00,57.4,55.7,29.96,ESE,103,1.9,8.1,94,0.12,RA,,0.79,WeatherDisplay:10.37,2013-06-06 16:17:00,
2013-06-06 12:22:00,57.6,55.9,29.96,SE,145,1.6,8.1,94,0.12,RA,,0.80,WeatherDisplay:10.37,2013-06-06 16:22:00,
2013-06-06 12:27:00,57.7,56.0,29.95,ESE,105,2.5,8.1,94,0.11,RA,,0.80,WeatherDisplay:10.37,2013-06-06 16:27:00,
2013-06-06 12:32:00,58.0,56.3,29.96,East,101,1.2,8.1,94,0.11,RA,,0.81,WeatherDisplay:10.37,2013-06-06 16:32:00,
2013-06-06 12:37:00,58.0,56.3,29.95,East,85,3.2,8.1,94,0.11,RA,,0.82,WeatherDisplay:10.37,2013-06-06 16:37:00,
2013-06-06 12:42:00,58.1,56.4,29.95,ENE,77,1.1,8.1,94,0.11,RA,,0.83,WeatherDisplay:10.37,2013-06-06 16:42:00,
2013-06-06 12:47:00,58.0,56.3,29.95,East,88,1.9,8.1,94,0.11,RA,,0.84,WeatherDisplay:10.37,2013-06-06 16:47:00,
2013-06-06 12:52:00,58.0,56.3,29.95,SSE,167,2.5,8.1,94,0.10,RA,,0.85,WeatherDisplay:10.37,2013-06-06 16:52:00,
2013-06-06 12:57:00,57.9,56.2,29.95,East,100,1.0,8.1,94,0.11,RA,,0.86,WeatherDisplay:10.37,2013-06-06 16:57:00,
2013-06-06 13:02:00,57.9,56.2,29.95,ENE,78,2.2,8.1,94,0.11,RA,,0.87,WeatherDisplay:10.37,2013-06-06 17:02:00,
2013-06-06 13:07:00,57.9,55.9,29.95,NE,50,2.0,11.5,93,0.11,RA,,0.88,WeatherDisplay:10.37,2013-06-06 17:07:00,
2013-06-06 13:12:00,57.9,56.2,29.95,SE,127,1.9,11.5,94,0.12,RA,,0.90,WeatherDisplay:10.37,2013-06-06 17:12:00,
2013-06-06 13:17:00,57.9,55.9,29.95,East,86,2.7,11.5,93,0.12,RA,,0.91,WeatherDisplay:10.37,2013-06-06 17:17:00,
2013-06-06 13:22:00,57.8,56.1,29.94,SE,145,2.7,11.5,94,0.12,RA,,0.93,WeatherDisplay:10.37,2013-06-06 17:22:00,
2013-06-06 13:27:00,57.8,56.1,29.94,ESE,121,2.3,11.5,94,0.13,RA,,0.93,WeatherDisplay:10.37,2013-06-06 17:27:00,
2013-06-06 13:32:00,57.7,55.7,29.94,ESE,117,3.6,11.5,93,0.13,RA,,0.94,WeatherDisplay:10.37,2013-06-06 17:32:00,
2013-06-06 13:37:00,57.6,55.6,29.94,SSE,160,2.1,11.5,93,0.12,RA,,0.95,WeatherDisplay:10.37,2013-06-06 17:37:00,
2013-06-06 13:42:00,57.6,55.6,29.94,SE,142,2.3,11.5,93,0.13,RA,,0.96,WeatherDisplay:10.37,2013-06-06 17:42:00,
2013-06-06 13:47:00,57.6,55.6,29.94,SSE,155,2.3,11.5,93,0.13,RA,,0.98,WeatherDisplay:10.37,2013-06-06 17:47:00,
2013-06-06 13:52:00,57.6,55.6,29.94,East,82,3.7,11.5,93,0.15,RA,,0.99,WeatherDisplay:10.37,2013-06-06 17:52:00,
2013-06-06 13:57:00,57.6,55.9,29.94,ENE,63,1.1,11.5,94,0.14,RA,,1.00,WeatherDisplay:10.37,2013-06-06 17:57:00,
2013-06-06 14:02:00,57.8,56.1,29.94,ENE,68,1.5,11.5,94,0.15,RA,,1.02,WeatherDisplay:10.37,2013-06-06 18:02:00,
2013-06-06 14:07:00,57.8,56.1,29.94,ENE,67,2.0,11.5,94,0.15,RA,,1.03,WeatherDisplay:10.37,2013-06-06 18:07:00,
2013-06-06 14:12:00,57.8,56.1,29.94,SE,132,0.0,11.5,94,0.14,RA,,1.05,WeatherDisplay:10.37,2013-06-06 18:12:00,
2013-06-06 14:17:00,57.8,56.1,29.94,East,90,2.9,11.5,94,0.15,RA,,1.07,WeatherDisplay:10.37,2013-06-06 18:17:00,
2013-06-06 14:22:00,57.7,56.0,29.94,South,170,2.1,11.5,94,0.16,RA,,1.08,WeatherDisplay:10.37,2013-06-06 18:22:00,
2013-06-06 14:27:00,57.6,55.9,29.94,East,95,1.3,11.5,94,0.17,RA,,1.11,WeatherDisplay:10.37,2013-06-06 18:27:00,
2013-06-06 14:32:00,57.6,55.9,29.94,ESE,103,1.5,11.5,94,0.19,RA,,1.13,WeatherDisplay:10.37,2013-06-06 18:32:00,
2013-06-06 14:37:00,57.6,55.9,29.94,ENE,57,1.6,11.5,94,0.22,RA,,1.16,WeatherDisplay:10.37,2013-06-06 18:37:00,
2013-06-06 14:42:00,57.7,56.0,29.94,East,96,0.9,11.5,94,0.22,RA,,1.19,WeatherDisplay:10.37,2013-06-06 18:42:00,
2013-06-06 14:47:00,57.8,56.1,29.93,ESE,116,1.2,11.5,94,0.23,RA,,1.20,WeatherDisplay:10.37,2013-06-06 18:47:00,
2013-06-06 14:52:00,57.9,56.2,29.93,SE,124,1.1,11.5,94,0.23,RA,,1.22,WeatherDisplay:10.37,2013-06-06 18:52:00,
2013-06-06 14:57:00,58.0,56.3,29.93,ESE,103,2.0,11.5,94,0.23,RA,,1.23,WeatherDisplay:10.37,2013-06-06 18:57:00,
2013-06-06 15:02:00,58.0,56.3,29.94,ENE,71,1.3,11.5,94,0.22,RA,,1.24,WeatherDisplay:10.37,2013-06-06 19:02:00,
2013-06-06 15:07:00,58.0,56.3,29.94,ENE,77,1.8,11.5,94,0.22,RA,,1.25,WeatherDisplay:10.37,2013-06-06 19:07:00,
2013-06-06 15:12:00,58.0,56.3,29.94,ESE,110,1.2,11.5,94,0.22,RA,,1.27,WeatherDisplay:10.37,2013-06-06 19:12:00,
2013-06-06 15:17:00,57.9,56.2,29.94,ESE,103,1.5,11.5,94,0.22,RA,,1.28,WeatherDisplay:10.37,2013-06-06 19:17:00,
2013-06-06 15:22:00,57.8,56.1,29.93,East,92,2.1,11.5,94,0.23,RA,,1.31,WeatherDisplay:10.37,2013-06-06 19:22:00,
2013-06-06 15:27:00,57.7,56.0,29.93,East,88,1.9,11.5,94,0.23,RA,,1.33,WeatherDisplay:10.37,2013-06-06 19:27:00,
2013-06-06 15:32:00,57.6,55.9,29.93,SE,124,1.7,11.5,94,0.21,RA,,1.35,WeatherDisplay:10.37,2013-06-06 19:32:00,
2013-06-06 15:34:00,57.5,55.8,29.93,ENE,77,0.7,11.5,94,0.21,RA,,1.35,WeatherDisplay:10.37,2013-06-06 19:34:00,
2013-06-06 15:39:00,57.4,55.7,29.93,SE,127,2.5,11.5,94,0.23,RA,,1.40,WeatherDisplay:10.37,2013-06-06 19:39:00,
2013-06-06 15:44:00,57.2,55.5,29.94,ESE,121,2.8,11.5,94,0.23,RA,,1.42,WeatherDisplay:10.37,2013-06-06 19:44:00,
2013-06-06 15:49:00,57.1,55.4,29.93,ENE,65,2.1,11.5,94,0.23,RA,,1.44,WeatherDisplay:10.37,2013-06-06 19:49:00,
2013-06-06 15:54:00,57.0,55.3,29.94,South,177,3.7,11.5,94,0.25,RA,,1.47,WeatherDisplay:10.37,2013-06-06 19:54:00,
2013-06-06 15:59:00,56.9,55.2,29.94,East,82,1.6,11.5,94,0.26,RA,,1.49,WeatherDisplay:10.37,2013-06-06 19:59:00,
2013-06-06 16:04:00,56.7,55.0,29.94,ENE,74,3.1,11.5,94,0.26,RA,,1.50,WeatherDisplay:10.37,2013-06-06 20:04:00,
2013-06-06 16:09:00,56.5,54.5,29.94,SE,135,2.2,11.5,93,0.25,RA,,1.51,WeatherDisplay:10.37,2013-06-06 20:09:00,
2013-06-06 16:14:00,56.3,54.0,29.93,SSE,155,3.9,11.5,92,0.26,RA,,1.53,WeatherDisplay:10.37,2013-06-06 20:14:00,
2013-06-06 16:19:00,56.2,53.9,29.94,ENE,73,1.9,11.5,92,0.26,RA,,1.55,WeatherDisplay:10.37,2013-06-06 20:19:00,
2013-06-06 16:24:00,56.1,53.8,29.93,SSE,151,2.6,11.5,92,0.24,RA,,1.56,WeatherDisplay:10.37,2013-06-06 20:24:00,
2013-06-06 16:29:00,56.1,53.8,29.93,East,85,2.2,11.5,92,0.24,RA,,1.57,WeatherDisplay:10.37,2013-06-06 20:29:00,
2013-06-06 16:34:00,56.0,53.7,29.93,East,82,2.5,11.5,92,0.23,RA,,1.58,WeatherDisplay:10.37,2013-06-06 20:34:00,
2013-06-06 16:39:00,55.9,53.9,29.93,ESE,103,2.0,11.5,93,0.19,RA,,1.59,WeatherDisplay:10.37,2013-06-06 20:39:00,
2013-06-06 16:44:00,55.9,53.9,29.93,ENE,74,2.4,11.5,93,0.18,RA,,1.60,WeatherDisplay:10.37,2013-06-06 20:44:00,
2013-06-06 16:49:00,56.0,54.0,29.93,East,86,1.5,11.5,93,0.16,RA,,1.60,WeatherDisplay:10.37,2013-06-06 20:49:00,
2013-06-06 16:54:00,56.1,54.1,29.93,SE,125,3.0,11.5,93,0.14,RA,,1.61,WeatherDisplay:10.37,2013-06-06 20:54:00,
2013-06-06 16:59:00,56.1,54.1,29.92,NE,49,1.7,11.5,93,0.12,RA,,1.61,WeatherDisplay:10.37,2013-06-06 20:59:00,
2013-06-06 17:04:00,56.1,54.4,29.93,ESE,106,3.2,11.5,94,0.12,RA,,1.62,WeatherDisplay:10.37,2013-06-06 21:04:00,
2013-06-06 17:09:00,56.0,54.3,29.93,SSE,153,1.1,11.5,94,0.12,RA,,1.63,WeatherDisplay:10.37,2013-06-06 21:09:00,
2013-06-06 17:14:00,56.0,54.3,29.93,East,97,2.7,11.5,94,0.10,RA,,1.63,WeatherDisplay:10.37,2013-06-06 21:14:00,
2013-06-06 17:19:00,56.1,54.4,29.92,ENE,63,1.6,11.5,94,0.09,RA,,1.65,WeatherDisplay:10.37,2013-06-06 21:19:00,
2013-06-06 17:24:00,56.1,54.4,29.92,East,86,2.8,11.5,94,0.10,RA,,1.66,WeatherDisplay:10.37,2013-06-06 21:24:00,
2013-06-06 17:29:00,56.3,54.6,29.92,NE,52,3.3,11.5,94,0.10,RA,,1.67,WeatherDisplay:10.37,2013-06-06 21:29:00,
2013-06-06 17:34:00,56.4,54.7,29.92,ESE,113,2.6,11.5,94,0.10,RA,,1.68,WeatherDisplay:10.37,2013-06-06 21:34:00,
2013-06-06 17:39:00,56.4,54.7,29.92,SE,145,3.1,11.5,94,0.09,RA,,1.69,WeatherDisplay:10.37,2013-06-06 21:39:00,
2013-06-06 17:44:00,56.5,54.8,29.92,SSE,148,4.4,11.5,94,0.10,RA,,1.70,WeatherDisplay:10.37,2013-06-06 21:44:00,
2013-06-06 17:49:00,56.4,54.7,29.92,ESE,106,2.5,11.5,94,0.11,RA,,1.71,WeatherDisplay:10.37,2013-06-06 21:49:00,
2013-06-06 17:54:00,56.2,54.2,29.92,East,101,4.0,12.0,93,0.11,RA,,1.72,WeatherDisplay:10.37,2013-06-06 21:54:00,
2013-06-06 17:59:00,56.1,54.1,29.92,ESE,110,3.8,12.0,93,0.12,RA,,1.73,WeatherDisplay:10.37,2013-06-06 21:59:00,
2013-06-06 18:04:00,55.9,54.2,29.92,SSE,148,3.3,12.0,94,0.12,RA,,1.74,WeatherDisplay:10.37,2013-06-06 22:04:00,
2013-06-06 18:09:00,55.8,54.1,29.92,ENE,75,3.1,12.0,94,0.11,RA,,1.74,WeatherDisplay:10.37,2013-06-06 22:09:00,
2013-06-06 18:14:00,55.7,54.0,29.91,ESE,114,4.3,12.0,94,0.12,RA,,1.75,WeatherDisplay:10.37,2013-06-06 22:14:00,
2013-06-06 18:19:00,55.7,54.0,29.91,WSW,245,2.0,12.0,94,0.11,RA,,1.76,WeatherDisplay:10.37,2013-06-06 22:19:00,
2013-06-06 18:24:00,55.6,53.9,29.91,ENE,66,5.6,12.0,94,0.10,RA,,1.76,WeatherDisplay:10.37,2013-06-06 22:24:00,
2013-06-06 18:29:00,55.5,53.8,29.91,SSE,161,2.7,12.0,94,0.09,RA,,1.76,WeatherDisplay:10.37,2013-06-06 22:29:00,
2013-06-06 18:34:00,55.5,53.8,29.91,SSE,153,2.4,12.0,94,0.08,,,1.76,WeatherDisplay:10.37,2013-06-06 22:34:00,
2013-06-06 18:39:00,55.5,53.8,29.91,East,92,3.1,12.0,94,0.09,RA,,1.77,WeatherDisplay:10.37,2013-06-06 22:39:00,
2013-06-06 18:44:00,55.4,53.7,29.91,East,96,3.1,12.0,94,0.07,RA,,1.77,WeatherDisplay:10.37,2013-06-06 22:44:00,
2013-06-06 18:49:00,55.4,53.7,29.91,East,90,2.3,12.0,94,0.07,RA,,1.78,WeatherDisplay:10.37,2013-06-06 22:49:00,
2013-06-06 18:54:00,55.4,53.7,29.91,East,96,2.4,12.0,94,0.07,RA,,1.79,WeatherDisplay:10.37,2013-06-06 22:54:00,
2013-06-06 18:59:00,55.5,54.1,29.90,ENE,75,2.4,12.0,95,0.07,RA,,1.80,WeatherDisplay:10.37,2013-06-06 22:59:00,
2013-06-06 19:04:00,55.5,54.1,29.90,ENE,63,1.5,12.0,95,0.06,RA,,1.80,WeatherDisplay:10.37,2013-06-06 23:04:00,
2013-06-06 19:09:00,55.5,54.1,29.90,ENE,75,2.3,12.0,95,0.07,RA,,1.81,WeatherDisplay:10.37,2013-06-06 23:09:00,
2013-06-06 19:14:00,55.5,54.1,29.90,ESE,115,2.0,12.0,95,0.07,RA,,1.82,WeatherDisplay:10.37,2013-06-06 23:14:00,
2013-06-06 19:19:00,55.4,54.0,29.90,ENE,78,2.1,12.0,95,0.08,RA,,1.83,WeatherDisplay:10.37,2013-06-06 23:19:00,
2013-06-06 19:24:00,55.3,53.9,29.90,East,100,2.2,12.0,95,0.08,RA,,1.84,WeatherDisplay:10.37,2013-06-06 23:24:00,
2013-06-06 19:29:00,55.2,53.8,29.89,SE,134,1.8,12.0,95,0.08,RA,,1.84,WeatherDisplay:10.37,2013-06-06 23:29:00,
2013-06-06 19:34:00,55.1,53.7,29.89,ESE,120,3.8,12.0,95,0.09,RA,,1.85,WeatherDisplay:10.37,2013-06-06 23:34:00,
2013-06-06 19:39:00,55.0,53.6,29.89,ESE,116,1.6,12.0,95,0.08,RA,,1.85,WeatherDisplay:10.37,2013-06-06 23:39:00,
2013-06-06 19:44:00,54.9,53.5,29.89,ENE,72,2.0,12.0,95,0.09,RA,,1.86,WeatherDisplay:10.37,2013-06-06 23:44:00,
2013-06-06 19:49:00,54.8,53.4,29.89,ENE,67,1.8,12.0,95,0.08,RA,,1.86,WeatherDisplay:10.37,2013-06-06 23:49:00,
2013-06-06 19:54:00,54.7,53.3,29.89,SE,127,1.9,12.0,95,0.08,RA,,1.87,WeatherDisplay:10.37,2013-06-06 23:54:00,
2013-06-06 19:59:00,54.7,53.3,29.89,ENE,65,2.9,12.0,95,0.07,RA,,1.87,WeatherDisplay:10.37,2013-06-06 23:59:00,
2013-06-06 20:04:00,54.6,53.2,29.89,ENE,78,2.7,12.0,95,0.07,,,1.87,WeatherDisplay:10.37,2013-06-07 00:04:00,
2013-06-06 20:09:00,54.6,53.2,29.89,SE,132,2.9,12.0,95,0.06,,,1.87,WeatherDisplay:10.37,2013-06-07 00:09:00,
2013-06-06 20:14:00,54.6,53.2,29.88,East,99,1.6,12.0,95,0.06,RA,,1.88,WeatherDisplay:10.37,2013-06-07 00:14:00,
2013-06-06 20:19:00,54.6,53.2,29.89,SE,132,2.7,12.0,95,0.05,RA,,1.88,WeatherDisplay:10.37,2013-06-07 00:19:00,
2013-06-06 20:24:00,54.5,53.1,29.88,ENE,59,2.2,12.0,95,0.04,,,1.88,WeatherDisplay:10.37,2013-06-07 00:24:00,
2013-06-06 20:29:00,54.5,53.1,29.88,East,94,2.8,12.0,95,0.05,RA,,1.89,WeatherDisplay:10.37,2013-06-07 00:29:00,
2013-06-06 20:34:00,54.5,53.1,29.88,East,79,2.0,12.0,95,0.04,RA,,1.89,WeatherDisplay:10.37,2013-06-07 00:34:00,
2013-06-06 20:40:00,54.5,53.1,29.88,ENE,78,2.1,12.0,95,0.04,,,1.89,WeatherDisplay:10.37,2013-06-07 00:40:00,
2013-06-06 20:45:00,54.5,53.1,29.88,SSE,155,2.1,12.0,95,0.03,,,1.89,WeatherDisplay:10.37,2013-06-07 00:45:00,
2013-06-06 20:50:00,54.5,53.1,29.88,ENE,72,2.5,12.0,95,0.04,RA,,1.90,WeatherDisplay:10.37,2013-06-07 00:50:00,
2013-06-06 20:55:00,54.5,53.1,29.88,East,88,1.4,12.0,95,0.03,RA,,1.90,WeatherDisplay:10.37,2013-06-07 00:55:00,
2013-06-06 21:00:00,54.5,53.1,29.88,East,90,1.3,12.0,95,0.03,,,1.90,WeatherDisplay:10.37,2013-06-07 01:00:00,
2013-06-06 21:05:00,54.6,53.2,29.87,East,89,3.2,12.0,95,0.03,,,1.90,WeatherDisplay:10.37,2013-06-07 01:05:00,
2013-06-06 21:10:00,54.6,53.2,29.87,ESE,121,1.5,12.0,95,0.03,,,1.90,WeatherDisplay:10.37,2013-06-07 01:10:00,
2013-06-06 21:15:00,54.6,53.2,29.87,ENE,58,2.5,12.0,95,0.03,RA,,1.91,WeatherDisplay:10.37,2013-06-07 01:15:00,
2013-06-06 21:20:00,54.7,53.3,29.87,ENE,71,1.7,12.0,95,0.03,RA,,1.91,WeatherDisplay:10.37,2013-06-07 01:20:00,
2013-06-06 21:25:00,54.7,53.3,29.87,East,97,1.8,12.0,95,0.03,,,1.91,WeatherDisplay:10.37,2013-06-07 01:25:00,
2013-06-06 21:30:00,54.8,53.4,29.87,ENE,68,0.7,12.0,95,0.02,,,1.91,WeatherDisplay:10.37,2013-06-07 01:30:00,
2013-06-06 21:35:00,54.8,53.4,29.87,ESE,110,1.5,12.0,95,0.03,RA,,1.92,WeatherDisplay:10.37,2013-06-07 01:35:00,
2013-06-06 21:40:00,54.8,53.4,29.86,East,88,2.8,12.0,95,0.03,RA,,1.92,WeatherDisplay:10.37,2013-06-07 01:40:00,
2013-06-06 21:45:00,54.8,53.4,29.86,East,98,1.4,12.0,95,0.03,,,1.92,WeatherDisplay:10.37,2013-06-07 01:45:00,
2013-06-06 21:50:00,54.9,53.5,29.86,ENE,75,3.1,12.0,95,0.03,RA,,1.93,WeatherDisplay:10.37,2013-06-07 01:50:00,
2013-06-06 21:55:00,54.9,53.5,29.87,ENE,78,1.4,12.0,95,0.03,RA,,1.93,WeatherDisplay:10.37,2013-06-07 01:55:00,
2013-06-06 22:00:00,55.0,53.6,29.86,East,99,0.9,12.0,95,0.03,,,1.93,WeatherDisplay:10.37,2013-06-07 02:00:00,
2013-06-06 22:05:00,55.0,53.6,29.87,East,82,2.0,12.0,95,0.03,,,1.93,WeatherDisplay:10.37,2013-06-07 02:05:00,
2013-06-06 22:10:00,55.0,53.6,29.86,ENE,65,2.0,12.0,95,0.03,,,1.93,WeatherDisplay:10.37,2013-06-07 02:10:00,
2013-06-06 22:15:00,55.1,53.7,29.86,SSE,147,1.1,12.0,95,0.02,,,1.93,WeatherDisplay:10.37,2013-06-07 02:15:00,
2013-06-06 22:20:00,55.1,53.7,29.86,SE,138,0.9,12.0,95,0.02,,,1.93,WeatherDisplay:10.37,2013-06-07 02:20:00,
2013-06-06 22:25:00,55.2,53.8,29.86,East,91,2.4,12.0,95,0.02,,,1.93,WeatherDisplay:10.37,2013-06-07 02:25:00,
2013-06-06 22:30:00,55.2,53.8,29.86,East,89,0.5,12.0,95,0.02,,,1.93,WeatherDisplay:10.37,2013-06-07 02:30:00,
2013-06-06 22:35:00,55.3,53.9,29.86,East,95,0.9,12.0,95,0.01,,,1.93,WeatherDisplay:10.37,2013-06-07 02:35:00,
2013-06-06 22:40:00,55.3,53.9,29.86,East,91,1.2,12.0,95,0.01,,,1.93,WeatherDisplay:10.37,2013-06-07 02:40:00,
2013-06-06 22:45:00,55.4,54.0,29.86,ESE,106,0.4,12.0,95,0.01,,,1.93,WeatherDisplay:10.37,2013-06-07 02:45:00,
2013-06-06 22:50:00,55.4,54.0,29.85,East,95,1.1,12.0,95,0.00,,,1.93,WeatherDisplay:10.37,2013-06-07 02:50:00,
2013-06-06 22:55:00,55.5,54.1,29.85,ENE,62,1.7,12.0,95,0.00,,,1.93,WeatherDisplay:10.37,2013-06-07 02:55:00,
2013-06-06 23:00:00,55.5,54.4,29.85,ESE,108,0.7,12.0,96,0.00,,,1.93,WeatherDisplay:10.37,2013-06-07 03:00:00,
2013-06-06 23:05:00,55.6,54.5,29.85,ESE,121,0.4,12.0,96,0.00,,,1.93,WeatherDisplay:10.37,2013-06-07 03:05:00,
2013-06-06 23:10:00,55.7,54.6,29.85,East,98,1.0,12.0,96,0.00,,,1.93,WeatherDisplay:10.37,2013-06-07 03:10:00,
2013-06-06 23:15:00,55.7,54.6,29.85,ENE,64,1.8,12.0,96,0.00,,,1.93,WeatherDisplay:10.37,2013-06-07 03:15:00,
2013-06-06 23:20:00,55.8,54.7,29.85,SE,142,0.6,12.0,96,0.00,,,1.93,WeatherDisplay:10.37,2013-06-07 03:20:00,
2013-06-06 23:25:00,55.8,54.7,29.85,ENE,78,0.9,12.0,96,0.00,,,1.93,WeatherDisplay:10.37,2013-06-07 03:25:00,
2013-06-06 23:30:00,55.9,54.8,29.84,East,82,1.7,12.0,96,0.01,RA,,1.94,WeatherDisplay:10.37,2013-06-07 03:30:00,
2013-06-06 23:35:00,55.9,54.8,29.84,East,82,1.9,12.0,96,0.01,RA,,1.94,WeatherDisplay:10.37,2013-06-07 03:35:00,
2013-06-06 23:40:00,56.0,54.9,29.84,SE,136,1.3,12.0,96,0.01,,,1.94,WeatherDisplay:10.37,2013-06-07 03:40:00,
2013-06-06 23:45:00,56.0,54.9,29.84,ENE,77,1.0,12.0,96,0.01,,,1.94,WeatherDisplay:10.37,2013-06-07 03:45:00,
2013-06-06 23:50:00,56.1,55.0,29.84,ESE,110,0.6,12.0,96,0.01,,,1.94,WeatherDisplay:10.37,2013-06-07 03:50:00,
2013-06-06 23:55:00,56.1,55.0,29.84,ESE,121,1.1,3.0,96,0.01,RA,,1.94,WeatherDisplay:10.37,2013-06-07 03:55:00,